Tracking 19794 objects as of 22-Jul-2019
HD Live streaming from Space Station
objects crossing your sky now

FENGYUN 1C DEB

Track FENGYUN 1C DEB now!
10-day predictions


NORAD ID: 30640
Int'l Code: 1999-025ANX
Perigee: 819.4 km
Apogee: 955.6 km
Inclination: 99.2 °
Period: 102.6 minutes
Semi major axis: 7258 km
RCS: 0.018 m2 (small)
Launch date: May 10, 1999
Source: People's Republic of China (PRC)
Launch site: Taiyaun Space Center, China (TSC)

Note: This is SATELLITE DEBRIS
aabbcc
Your satellite tracking list
Your tracking list is empty




NASA's NSSDC Master Catalog

Two Line Element Set (TLE):
1 30640U 99025ANX 19203.03990508  .00000690  00000-0  44819-3 0  9991
2 30640  99.2329 213.3760 0093805 120.2559 307.8702 14.03890782636060
Source of the keplerian elements: AFSPC